CZ-6A DEB, 56276

Orbit data source: Space-Track

CZ-6A DEB, 56276 is space debris in SSO originally from a launch on Fri, 11 Nov 2022 UTC launched from the Taiyaun Space Center, China (TSC). Debris objects in space refer to the collection of defunct objects orbiting the Earth. Examples of debris include non-operational satellites, rocket bodies, and fragments generated from explosions, collisions, or faulty payload assembly.

Loading next visibility...
Identifier
56276, 2022-151ACU
Orbit
SSO
Country
Flag of CNCN / PRC
Related business
Manufacturer
SAST
Mission
Spacecraft
Bus & Motor
Unknown
Mass
Unknown
Launch date (UTC)
2022-11-11 (4 years ago)
Launch vehicle
Unknown
Launch site
Taiyaun Space Center, China (TSC)
Object type
Payload
Rocket body
Debris
Shape & HBR
Unknown shape, 0.1 m
Radar Cross Section
Small (<0.1 m²)

Expand to show TLE details & history
Last TLE update: 2 days ago

TLE from 2 days ago
0 CZ-6A DEB
1 56276U 22151ACU 26171.30500422  .00000579  00000-0  28850-3 0  9997
2 56276  98.7760 187.1925 0007780 309.3469  50.7018 14.20846498168668
Epoch: 2026-06-20T07:19Z
TLE epoch observation values (Epoch: 2026-06-20T07:19:12.364Z)
Latitude
-0°
Longitude
168.86945°
Altitude
821.859 km
Speed
7.444 km/s
True Right ascension
12h 28m 46s
True Declination
0° 00' 00"
Sunlit
Object was in daylight at epoch
Visualization orbit readout
Latitude
Unknown
Longitude
Unknown
Altitude
Unknown
Speed
Unknown
Apparent Right ascension
Unknown
Apparent Declination
Unknown
Sunlit
N/A
Visualization observer readout
Local Sidereal Time
21:41:55
Azimuth
Unknown
Elevation
Unknown
Doppler factor
Unknown
Orbital elements
Apogee altitude
825.252 km
Perigee altitude
814.052 km
Semi-major axis
7,197.789 km
Eccentricity
0.00078
Inclination
98.776°
RAAN
187.1925°
Arg. of periapsis
309.3469°
True anomaly
50.77083°
Mean anomaly
50.7018°
Eccentric anomaly
50.73631°
Mean motion
3.55422 °/min
Orbital period
101.29 mins
BSTAR
0.0002885
Loading maneuver chart data...
Computing Atmospheric mass density...
Loading historical data...
Loading historical data...
Loading historical data...
Loading historical data...
Loading historical data...
Loading historical data...
Loading historical data...

Documentation

Showing up to 5 results
|